Location: Mahannah Oil Field
(37.4664°N, 96.6003°W)
Time: 01:57:15
(UTC+00:00)

Tiros 1 despin weight - Pass Details

Date: 28 January 2021
Orbit: 593 x 642 km, 48.2° (Epoch: 25 February)

Event Time Altitude Azimuth Distance (km) Brightness Sun altitude
Rises 21:04:22 0° 284° (WNW) 2,897 ? 24.9°
Reaches altitude 10° 21:07:08 10° 299° (WNW) 1,982 ? 24.6°
Maximum altitude 21:10:42 22° 351° (N) 1,342 ? 24.1°
Drops below altitude 10° 21:14:15 10° 43° (NE) 1,958 ? 23.7°
Sets 21:16:58 0° 59° (ENE) 2,854 ? 23.3°
